Location: Adams
(39.9979°N, 79.0290°W)
Time: 05:26:25
(UTC+00:00)

Tiangong - Visible Passes

Search period start: 21 October 2021 00:00
Search period end: 31 October 2021 00:00
Orbit: 382 x 384 km, 41.5° (Epoch: 20 October)

Date Brightness Start Highest point End Pass type
(mag) Time Alt. Az. Time Alt. Az. Time Alt. Az.
22 Oct 2.0 00:15:38 10° W 00:18:07 47° WNW 00:18:07 47° WNW visible
22 Oct 1.1 23:15:24 10° W 23:18:33 72° N 23:20:45 18° ENE visible
23 Oct 4.3 00:52:19 10° WNW 00:52:55 15° WNW 00:52:55 15° WNW visible
23 Oct 1.1 23:52:05 10° W 23:55:14 65° N 23:55:32 60° NE visible
24 Oct 1.2 22:51:49 10° W 22:54:58 64° N 22:58:06 10° E visible
25 Oct 3.2 00:28:41 10° WNW 00:30:19 28° W 00:30:19 28° W visible
25 Oct 1.0 23:28:25 10° WNW 23:31:35 75° N 23:32:56 31° E visible
27 Oct 1.7 00:04:58 10° W 00:07:46 53° SW 00:07:46 53° SW visible
27 Oct 1.1 23:04:40 10° WNW 23:07:49 84° SSW 23:10:29 14° ESE visible
28 Oct 4.2 00:41:51 10° W 00:42:40 14° WSW 00:42:40 14° WSW visible
28 Oct 2.4 23:41:15 10° W 23:44:11 35° SSW 23:45:27 24° SSE visible
29 Oct 1.6 22:40:49 10° W 22:43:55 57° SSW 22:47:01 10° ESE visible
30 Oct 3.9 00:18:46 10° WSW 00:20:16 13° SW 00:20:34 13° SSW visible
30 Oct 3.4 23:17:36 10° W 23:20:07 22° SSW 23:22:37 10° SSE visible
